Location: Platte
(43.3870°N, 98.8440°W)
Time: 05:13:11
(UTC-05:00)

Meteor 1-12 Rocket - Pass Details

Date: 21 May 2018
Orbit: 855 x 926 km, 81.2° (Epoch: 21 October)

Event Time Altitude Azimuth Distance (km) Brightness Sun altitude
Rises 22:16:38 0° 350° (N) 3,528 8.4 -12.1°
Reaches altitude 10° 22:19:06 10° 351° (N) 2,593 7.6 -12.4°
Maximum altitude 22:25:02 85° 79° (E) 923 4.4 -13.2°
Enters shadow 22:30:22 13° 169° (S) 2,365 6.0 -13.8°
